This demonstration page uses our WeatherBlox Daily Observations layout. Learn more.

Left ArrowRight Arrow

34.74481, -87.66753

Hourly Observations for October 26, 2021

Temp ( °F °C ) Dew Point ( °F °C ) Humidity (%) Winds ( mph kmh ) Pressure ( in mb ) Visibility ( mi km ) Precip ( " mm )
12:53 am 00:53 Cloudy 57 13.9 44 6.7 62 62 N 9 15 30.02 1017 10 16 0.00 0.00
1:53 am 01:53 Cloudy 57 13.9 44 6.7 62 62 N 9 15 30.01 1016 10 16 0.00 0.00
2:53 am 02:53 Cloudy 57 13.9 44 6.7 62 62 NNE 7 11 29.99 1016 10 16 0.00 0.00
3:53 am 03:53 Cloudy 56 13.3 44 6.7 65 65 NE 15 24 29.99 1016 10 16 0.00 0.00
4:53 am 04:53 Cloudy 56 13.3 45 7.2 67 67 NNE 7 11 30.01 1016 10 16 0.00 0.00
5:53 am 05:53 Cloudy 55 12.8 44 6.7 67 67 N 7 11 30.03 1017 10 16 0.00 0.00
6:53 am 06:53 Cloudy 55 12.8 43 6.1 64 64 NNE 9 15 30.03 1017 10 16 0.00 0.00
7:53 am 07:53 Cloudy 55 12.8 43 6.1 64 64 N 7 11 30.04 1017 10 16 0.00 0.00
8:53 am 08:53 Cloudy 56 13.3 44 6.7 65 65 N 7 11 30.06 1018 10 16 0.00 0.00
9:53 am 09:53 Cloudy 57 13.9 45 7.2 64 64 N 8 13 30.06 1018 10 16 0.00 0.00
10:43 am 10:43 Partly Cloudy 59 15 45 7.2 60 60 N 8 13 30.08 1019 10 16 0.00 0.00
10:53 am 10:53 Partly Cloudy 61 16.1 46 7.8 58 58 VRB 6 9 30.06 1018 10 16 0.00 0.00
11:53 am 11:53 Sunny 63 17.2 46 7.8 54 54 undefined N/A 30.04 1017 10 16 0.00 0.00
12:53 pm 12:53 Sunny 64 17.8 45 7.2 50 50 VRB 3 6 30.01 1016 10 16 0.00 0.00
1:53 pm 13:53 Sunny 66 18.9 45 7.2 47 47 NNE 5 7 29.98 1015 10 16 0.00 0.00
2:53 pm 14:53 Sunny 69 20.6 46 7.8 44 44 NNE 9 15 29.96 1015 10 16 0.00 0.00
3:53 pm 15:53 Sunny 69 20.6 46 7.8 44 44 NE 8 13 29.95 1014 10 16 0.00 0.00
4:53 pm 16:53 Sunny 68 20 44 6.7 42 42 N 3 6 29.95 1014 10 16 0.00 0.00
5:53 pm 17:53 Sunny 64 17.8 46 7.8 52 52 N 3 6 29.94 1014 10 16 0.00 0.00
6:53 pm 18:53 Clear 60 15.6 46 7.8 60 60 NNE 6 9 29.95 1014 10 16 0.00 0.00
7:53 pm 19:53 Clear 60 15.6 47 8.3 62 62 ENE 7 11 29.94 1014 10 16 0.00 0.00
8:53 pm 20:53 Clear 59 15 46 7.8 62 62 ENE 7 11 29.95 1014 10 16 0.00 0.00
9:53 pm 21:53 Clear 57 13.9 45 7.2 64 64 E 8 13 29.96 1015 10 16 0.00 0.00
10:53 pm 22:53 Clear 55 12.8 44 6.7 67 67 ENE 6 9 29.96 1015 10 16 0.00 0.00
11:53 pm 23:53 Clear 54 12.2 44 6.7 69 69 Calm 29.96 1015 10 16 0.00 0.00

Powered by AerisWeather